Regional Weather Roundup
Issued by NWS

Home | Current Version | Previous Version | Text Only | Print | Product List | Glossary On
Versions: 1 2 3 4 5 6 7 8 9 10 11 12 13 14 15 16 17 18 19 20 21 22 23 24 25 26 27 28 29 30 31 32 33 34 35 36 37 38 39 40 41 42 43 44 45 46 47 48 49 50
140
ASUS43 KMKX 261321
RWRWI

WISCONSIN REGIONAL WEATHER ROUNDUP
NATIONAL WEATHER SERVICE MILWAUKEE/SULLIVAN WI
800 AM CDT TUE SEP 26 2017

NOTE: "FAIR" INDICATES FEW OR NO CLOUDS BELOW 12,000 FEET WITH NO
SIGNIFICANT WEATHER AND/OR OBSTRUCTIONS TO VISIBILITY.

WIZ001-002-006>008-014>016-023>028-261400-
NORTHWEST WISCONSIN

CITY           SKY/WX    TMP DP  RH WIND       PRES   REMARKS
SUPERIOR ARPT  LGT RAIN  56  56  99 NE7G16    29.93S
ASHLAND        LGT RAIN  58  57  97 NE7       29.91S FOG
HAYWARD        LGT RAIN  59  58  96 CALM      29.91R FOG
SIREN          RAIN      58  57  98 CALM      29.91S
CUMBERLAND     RAIN      57  55  94 SW3       29.91S
RICE LAKE      DRIZZLE   61  60  97 CALM      29.92S
CHETEK         DRIZZLE   62  62 100 SE5       29.91S
LADYSMITH      FOG       63  63  98 S5        29.93S VSB 1/4
EAU CLAIRE     LGT RAIN  64  63  96 S3        29.90S
MENOMONIE      DRIZZLE   62  62 100 CALM      29.91S
NEW RICHMOND   RAIN      57  57  99 W6        29.93R
OSCEOLA        RAIN      57  57 100 W5        29.95S
$$

WIZ003>005-009-010-017-018-261400-
NORTH CENTRAL WISCONSIN

CITY           SKY/WX    TMP DP  RH WIND       PRES   REMARKS
MANITOWISH WTR CLOUDY    63  63 100 SW3       29.91S FOG
ARBOR VITAE    CLOUDY    64  63  96 SW5       29.91S FOG
WOODRUFF       CLOUDY    64  63  96 SW5       29.91S FOG
RHINELANDER    MOSUNNY   64  64 100 SW7       29.93R
EAGLE RIVER    CLOUDY    63  63 100 CALM      29.91S FOG
LAND O LAKES   FOG       63  63 100 CALM      29.93S VSB 1/4
PHILLIPS       CLOUDY    62  62 100 S3        29.91S FOG
TOMAHAWK       CLOUDY    63  62  97 CALM      29.93R FOG
MEDFORD        CLOUDY    63  62  98 S5        29.93S FOG
MERRILL        CLOUDY    65  65 100 S5        29.93S
$$

WIZ029-030-035-036-043>047-261400-
CENTRAL WISCONSIN

CITY           SKY/WX    TMP DP  RH WIND       PRES   REMARKS
WAUSAU         CLOUDY    65  65 100 S5        29.91S
MOSINEE        CLOUDY    64  64 100 S5        29.94R FOG
MARSHFIELD     CLOUDY    64  62  93 SW7       29.93R FOG
STEVENS POINT  PTSUNNY   64  64 100 SW3       29.94S
WAUPACA        CLOUDY    68  67  97 CALM      29.93R
WAUTOMA        CLOUDY    66  65  96 CALM      29.94R
WISC RAPIDS    CLOUDY    66  65  96 CALM      29.94R FOG
CAMP DOUGLAS   CLOUDY    64  64 100 CALM      29.93R
$$

WIZ011>013-019>022-031-037>040-048>050-261400-
NORTHEAST WISCONSIN

CITY           SKY/WX    TMP DP  RH WIND       PRES   REMARKS
ANTIGO         CLOUDY    64  64 100 S5        29.94S
SHAWANO        LGT RAIN  67  64  89 CALM      29.92F
OCONTO         CLOUDY    64  64  99 CALM      29.92R VSB 1/4
STURGEON BAY   MOSUNNY   68  64  87 SE5       29.92S
GREEN BAY      CLOUDY    66  65  96 W5        29.93R
MANITOWOC      PTSUNNY   65  62  90 CALM      29.93S
APPLETON       PTSUNNY   68  64  88 CALM      29.93R
CLINTONVILLE   CLOUDY    64  64 100 CALM      29.91F
OSHKOSH        MOSUNNY   67  65  93 W3        29.93R
$$

WIZ032>034-041-042-053>061-261400-
SOUTHWEST WISCONSIN

CITY           SKY/WX    TMP DP  RH WIND       PRES   REMARKS
LA CROSSE      CLOUDY    68  66  93 SE6       29.91S
SPARTA         PTSUNNY   59  59 100 CALM      29.93S
VIROQUA        CLOUDY    65  65 100 CALM      29.95S
BOSCOBEL       CLOUDY    67  66  97 CALM      29.94S FOG
PRAIRIE DU CHI CLOUDY    66  65  94 E6        29.92S FOG
PLATTEVILLE    CLOUDY    66  66 100 CALM      29.96R
$$

WIZ056-057-062-063-064-067-068-261400-
SOUTH CENTRAL WISCONSIN

CITY           SKY/WX    TMP DP  RH WIND       PRES   REMARKS
REEDSBURG      CLOUDY    65  65 100 W3        29.94R FOG
BARABOO/DELLS  CLOUDY    65  64  95 W5        29.94R FOG
LONE ROCK      CLOUDY    66  66 100 W6        29.94R FOG
MINERAL POINT  CLOUDY    66  66 100 W6        29.96R FOG
MADISON        CLOUDY    68  63  84 CALM      29.93R
MIDDLETON      CLOUDY    69  66  90 SE3       29.94S
WATERTOWN      CLOUDY    66  65  94 SE5       29.93S
MONROE         CLOUDY    68  61  77 E5        29.94S
JANESVILLE     PTSUNNY   70  66  88 CALM      29.93S
$$

WIZ051-052-058>065-066-070>072-261400-
SOUTHEAST WISCONSIN

CITY           SKY/WX    TMP DP  RH WIND       PRES   REMARKS
MILWAUKEE      PTSUNNY   70  61  73 S3        29.94R
WAUKESHA       SUNNY     64  61  88 CALM      29.96R
MILWAUKEE/TIMM SUNNY     64  57  77 CALM      29.95S
RACINE         PTSUNNY   67  62  84 CALM      29.96R
BURLINGTON     MOSUNNY   63  62  96 CALM      29.95S
KENOSHA        MOSUNNY   66  60  81 CALM      29.95S
FOND DU LAC    CLOUDY    68  62  81 MISG      29.93S
SHEBOYGAN      MOSUNNY   63  63 100 CALM      29.93S
WEST BEND        N/A     61  61 100 CALM      29.94F
JUNEAU         PTSUNNY   66  63  92 CALM      29.94S
$$

LSZ147-162-261400-
LAKE SUPERIOR

STATION/POSITION TIME  TEMP    WIND        PRES    WAVE
                       AIR SEA DIR/SP/G            HT/PER
                 (UTC) (F)     (DEG/KT/KT) (MB)    (FT/S)
W MID LAKE BUOY  1250   55 54   50/ 19/ 21 1012.6F   5/ 5
DEVILS ISLAND    1300   55      50/ 22/ 25 1013.4S
SAXON HARBOR     1230   58      CALM  /  1 1012.2S
$$

LMZ867-665-643>646-261400-
LAKE MICHIGAN

STATION/POSITION TIME  TEMP    WIND        PRES    WAVE
                       AIR SEA DIR/SP/G            HT/PER
                 (UTC) (F)     (DEG/KT/KT) (MB)    (FT/S)
S GREEN BAY BUOY 1300   66 70   70/  2/  2 1013.0R
N MID LAKE BUOY  1250   68 67  160/  6/  6 1013.3F   1
NORTHPORT PIER   1230   67        CALM     1012.9R
KEWAUNEE LAKESHO 1254   64      CALM  /  1 1012.3F
SHEBOYGAN LAKESH 1300   68     270/  3/  3 1012.8F
PORT WASHINGTON  1240   67     270/  3/  5 1014.2S
ATWATER BUOY     1209   64 62  160/  2/  4 1013.8R
MILWAUKEE LAKESH 1300   69     180/  4/  4   N/A
S MID LAKE BUOY  1250   72 71  180/  8/  8 1013.9R   0
KENOSHA   LAKESH 1300   72     210/  2/  3 1013.9
$$

TC  - TEMPERATURE IN CELSIUS
VSB - VISIBILITY IN STATUTE MILES
WCI - WIND CHILL INDEX
HX  - HEAT INDEX





USA.gov is the U.S. government's official web portal to all federal, state and local government web resources and services.